Location: Navajo
(48.7922°N, 105.0603°W)
Time: 23:15:08
(UTC+00:00)

QB50P2 - Pass Details

Date: 04 July 2022
Orbit: 590 x 605 km, 97.9° (Epoch: 16 August)

Event Time Altitude Azimuth Distance (km) Brightness Sun altitude
Rises 07:03:44 0° 33° (NNE) 2,865 ? -18.3°
Reaches altitude 10° 07:07:24 10° 66° (ENE) 1,957 ? -18.3°
Maximum altitude 07:08:55 12° 87° (E) 1,846 ? -18.3°
Drops below altitude 10° 07:10:27 10° 109° (ESE) 1,953 ? -18.3°
Enters shadow 07:10:51 - 114° (ESE) 2,016 ? -18.3°
